UAE223 OMDB-KSEA

Flight info

Callsign UAE223
Flight time N/A
Altitude 29000
Route ANVIX L223 TARDI N629 IVAKU G216 ALPOR DCT PI/N0502F310 B505 PG G325 REGET N644 MESRA/N0499F320 N644 LEMOD B362 LBA A299 POGON/K0919F320 Y927 AKALI L985 UZLOR L162 URUSU N984 UROKI/K0907F340 N984 RULEN T822 ALOPU/K0904F330 T793 URIRA/K0907F340 T793 SONIB T533 AGATA DCT 81N030E/N0500F340 82N027E/M084F340 84N020E 86N000E 87N020W/M084F360 87N040W DCT OVBES/N0492F360 DCT 85N100W 80N114W 75N121W/N0493F370 70N122W 65N123W 60N124W 55N124W DCT ELIDI/N0478F380 DCT KEINN/N0477F390 DCT NUTBE DCT VIXOR MARNR8
Aircraft B77W/H-SDE1E2E3FGHIJ2J3J4J5M1RWXY/LB1D1

Departure

Time 2026-04-23 04:22
Airport Dubai International Airport (OMDB)

Arrival

Time N/A
Airport Seattle–Tacoma International Airport (KSEA)
Time Latitude Longitude Altitude Speed Heading
2026-04-23 04:02 25.24809 55.36437 23 ft 0 kts 211°
2026-04-23 04:09 25.24819 55.36444 26 ft 4 kts 211°
2026-04-23 04:10 25.24842 55.36459 29 ft 4 kts 211°
2026-04-23 04:10 25.24862 55.36473 32 ft 4 kts 220°
2026-04-23 04:10 25.24876 55.36491 32 ft 4 kts 255°
2026-04-23 04:10 25.24876 55.36510 23 ft 4 kts 295°
2026-04-23 04:11 25.24863 55.36534 25 ft 4 kts 305°
2026-04-23 04:11 25.24854 55.36548 24 ft 1 kts 302°
2026-04-23 04:11 25.24853 55.36550 24 ft 0 kts 302°
2026-04-23 04:14 25.24854 55.36548 24 ft 1 kts 302°
2026-04-23 04:15 25.24863 55.36532 24 ft 6 kts 302°
2026-04-23 04:15 25.24901 55.36469 27 ft 14 kts 307°
2026-04-23 04:15 25.25098 55.36333 27 ft 13 kts 352°
2026-04-23 04:16 25.25187 55.36370 29 ft 15 kts 31°
2026-04-23 04:16 25.25280 55.36433 32 ft 16 kts 31°
2026-04-23 04:16 25.25374 55.36495 30 ft 16 kts 31°
2026-04-23 04:16 25.25399 55.36599 28 ft 16 kts 115°
2026-04-23 04:17 25.25344 55.36704 28 ft 16 kts 122°
2026-04-23 04:17 25.25285 55.36808 29 ft 16 kts 122°
2026-04-23 04:17 25.25226 55.36914 29 ft 17 kts 121°
2026-04-23 04:17 25.25158 55.37035 29 ft 20 kts 122°
2026-04-23 04:18 25.25076 55.37180 30 ft 23 kts 122°
2026-04-23 04:18 25.24992 55.37331 30 ft 23 kts 121°
2026-04-23 04:18 25.24907 55.37480 30 ft 23 kts 122°
2026-04-23 04:18 25.24823 55.37632 29 ft 23 kts 120°
2026-04-23 04:19 25.24738 55.37782 29 ft 23 kts 122°
2026-04-23 04:19 25.24653 55.37932 29 ft 23 kts 122°
2026-04-23 04:19 25.24568 55.38082 29 ft 23 kts 122°
2026-04-23 04:19 25.24503 55.38204 29 ft 14 kts 111°
2026-04-23 04:20 25.24540 55.38272 28 ft 12 kts 30°
2026-04-23 04:20 25.24611 55.38320 27 ft 12 kts 20°
2026-04-23 04:20 25.24660 55.38292 27 ft 0 kts 302°
2026-04-23 04:21 25.24663 55.38287 27 ft 5 kts 302°
2026-04-23 04:21 25.24720 55.38185 30 ft 36 kts 302°
2026-04-23 04:21 25.24992 55.37693 35 ft 114 kts 301°
2026-04-23 04:22 25.25539 55.36709 34 ft 185 kts 301°
2026-04-23 04:22 25.26301 55.35351 304 ft 216 kts 302°
2026-04-23 04:22 25.27131 55.33951 1059 ft 218 kts 303°
2026-04-23 04:22 25.27977 55.32509 1544 ft 222 kts 301°
2026-04-23 04:23 25.28748 55.31107 2126 ft 212 kts 300°
2026-04-23 04:23 25.29329 55.29629 2398 ft 213 kts 274°
2026-04-23 04:23 25.29039 55.28055 2451 ft 211 kts 241°
2026-04-23 04:23 25.28396 55.26634 2882 ft 205 kts 242°
2026-04-23 04:24 25.27782 55.25221 3253 ft 203 kts 242°
2026-04-23 04:24 25.27178 55.23817 3579 ft 202 kts 242°
2026-04-23 04:24 25.26573 55.22409 3836 ft 203 kts 242°
2026-04-23 04:24 25.25960 55.20984 4087 ft 210 kts 242°
2026-04-23 04:25 25.25314 55.19477 4212 ft 223 kts 243°
2026-04-23 04:25 25.24597 55.17920 4438 ft 230 kts 231°
2026-04-23 04:25 25.23339 55.16855 4657 ft 235 kts 196°
2026-04-23 04:25 25.21693 55.16725 4895 ft 242 kts 176°
2026-04-23 04:26 25.19998 55.16888 5268 ft 246 kts 169°
2026-04-23 04:26 25.18454 55.17716 5628 ft 255 kts 139°
2026-04-23 04:26 25.17384 55.19329 5933 ft 267 kts 120°
2026-04-23 04:26 25.16516 55.21162 6344 ft 272 kts 120°
2026-04-23 04:27 25.15637 55.23021 6829 ft 274 kts 120°
2026-04-23 04:27 25.14745 55.24896 7308 ft 279 kts 121°
2026-04-23 04:27 25.13823 55.26822 7646 ft 288 kts 121°
2026-04-23 04:28 25.11918 55.30796 8568 ft 296 kts 121°
2026-04-23 04:28 25.10945 55.32818 9079 ft 299 kts 121°
2026-04-23 04:28 25.10022 55.34893 9603 ft 303 kts 117°
2026-04-23 04:28 25.09156 55.37029 10086 ft 306 kts 117°
2026-04-23 04:29 25.08284 55.39184 10583 ft 309 kts 117°
2026-04-23 04:29 25.07397 55.41354 11072 ft 311 kts 117°
2026-04-23 04:29 25.06519 55.43574 11404 ft 322 kts 115°
2026-04-23 04:29 25.05624 55.45911 11521 ft 339 kts 115°
2026-04-23 04:30 25.04687 55.48367 11667 ft 357 kts 115°
2026-04-23 04:30 25.03695 55.50956 11807 ft 374 kts 115°